SQP708 LEBL-LUKK

Flight info

Callsign SQP708
Flight time 0h 23m
Altitude 32000
Route DIPES N725 LAPIT/N0462F340 N725 OSPOK/N0464F330 DCT NOLVI DCT ORKUM/N0463F340 DCT ELSAG DCT ALG DCT MINKA DCT POZZO DCT TINIX DCT XOLTA/N0459F350 DCT MAVIT DCT TOMET DCT BUSES
Aircraft B738/M-SDE2E3FGHIRWXY/LB1

Departure

Time 2026-04-28 14:40
Airport Josep Tarradellas Barcelona-El Prat Airport (LEBL)

Arrival

Time 2026-04-28 15:04
Airport Chişinău International Airport (LUKK)
Time Latitude Longitude Altitude Speed Heading
2026-04-28 14:29 41.29413 2.08079 18 ft 0 kts 65°
2026-04-28 14:38 41.29413 2.08080 18 ft 0 kts 65°
2026-04-28 14:38 41.29418 2.08094 18 ft 4 kts 65°
2026-04-28 14:38 41.29459 2.08127 18 ft 15 kts 356°
2026-04-28 14:38 41.29572 2.07988 19 ft 27 kts 249°
2026-04-28 14:39 41.29484 2.07739 18 ft 35 kts 244°
2026-04-28 14:39 41.29361 2.07383 15 ft 44 kts 244°
2026-04-28 14:39 41.29402 2.07205 17 ft 15 kts 335°
2026-04-28 14:39 41.29471 2.07184 17 ft 9 kts 23°
2026-04-28 14:40 41.29518 2.07297 18 ft 21 kts 65°
2026-04-28 14:40 41.29572 2.07455 18 ft 43 kts 65°
2026-04-28 14:40 41.29996 2.08677 22 ft 168 kts 64°
2026-04-28 14:40 41.30547 2.10243 778 ft 186 kts 63°
2026-04-28 14:41 41.31142 2.11831 1784 ft 206 kts 64°
2026-04-28 14:41 41.31780 2.13587 2831 ft 225 kts 65°
2026-04-28 14:41 41.37894 2.30107 10233 ft 243 kts 63°
2026-04-28 14:41 41.50122 2.65361 15362 ft 278 kts 65°
2026-04-28 14:42 41.64292 3.04687 18430 ft 310 kts 63°
2026-04-28 14:42 41.79522 3.48447 21414 ft 335 kts 66°
2026-04-28 14:42 41.94676 3.95912 23530 ft 358 kts 65°
2026-04-28 14:42 42.12701 4.45747 25106 ft 379 kts 63°
2026-04-28 14:43 42.29916 4.99242 26544 ft 397 kts 68°
2026-04-28 14:43 42.32148 5.06998 26878 ft 412 kts 68°
2026-04-28 14:43 42.39831 5.32111 28698 ft 424 kts 66°
2026-04-28 14:43 42.49945 5.64197 32077 ft 432 kts 64°
2026-04-28 14:44 42.51221 5.67963 31984 ft 448 kts 64°
2026-04-28 14:44 42.70735 6.26403 31979 ft 461 kts 65°
2026-04-28 14:44 42.90232 6.92848 31973 ft 475 kts 68°
2026-04-28 14:44 43.09342 7.60855 31976 ft 488 kts 66°
2026-04-28 14:45 43.30693 8.30004 31959 ft 500 kts 65°
2026-04-28 14:45 43.69315 9.72911 32197 ft 476 kts 70°
2026-04-28 14:45 43.87149 10.40690 32589 ft 459 kts 65°
2026-04-28 14:46 43.97674 10.76390 32086 ft 451 kts 66°
2026-04-28 14:46 43.99827 10.84638 32048 ft 458 kts 69°
2026-04-28 14:47 44.08469 11.20580 32023 ft 459 kts 69°
2026-04-28 14:47 44.41392 12.51758 32062 ft 461 kts 68°
2026-04-28 14:47 44.56864 13.17003 31933 ft 463 kts 70°
2026-04-28 14:48 44.67492 13.66281 32043 ft 462 kts 70°
2026-04-28 14:48 44.96064 14.93454 32001 ft 467 kts 69°
2026-04-28 14:48 45.10744 15.63290 32167 ft 466 kts 70°
2026-04-28 14:49 45.16705 15.93789 32089 ft 467 kts 70°
2026-04-28 14:49 45.18462 16.02598 32062 ft 465 kts 70°
2026-04-28 14:50 45.20257 16.11422 32064 ft 465 kts 69°
2026-04-28 14:50 45.22058 16.20266 32066 ft 466 kts 69°
2026-04-28 14:51 45.23840 16.29096 32070 ft 466 kts 70°
2026-04-28 14:51 45.47271 17.49669 32120 ft 468 kts 69°
2026-04-28 14:51 45.60389 18.20956 31970 ft 470 kts 70°
2026-04-28 14:52 45.73251 18.93446 32617 ft 473 kts 70°
2026-04-28 14:52 45.75780 19.07976 32066 ft 474 kts 70°
2026-04-28 14:52 45.76573 19.12595 32088 ft 474 kts 70°
2026-04-28 14:53 45.78136 19.21756 32090 ft 476 kts 70°
2026-04-28 14:53 45.79688 19.30902 32088 ft 475 kts 70°
2026-04-28 14:54 45.81246 19.40099 32088 ft 475 kts 70°
2026-04-28 14:54 45.83915 19.55944 32101 ft 477 kts 70°
2026-04-28 14:55 46.08039 21.06025 32037 ft 483 kts 71°
2026-04-28 14:55 46.19292 21.81904 32240 ft 482 kts 71°
2026-04-28 14:55 46.30113 22.57440 31971 ft 485 kts 71°
2026-04-28 14:55 46.35337 22.95078 32138 ft 482 kts 72°
2026-04-28 14:56 46.35974 22.99841 32086 ft 483 kts 72°
2026-04-28 14:56 46.44206 23.63658 32116 ft 478 kts 73°
2026-04-28 14:57 46.62941 25.14608 32100 ft 481 kts 75°
2026-04-28 14:57 46.68685 25.66209 32251 ft 479 kts 76°
2026-04-28 14:57 46.74941 26.26869 32130 ft 479 kts 76°
2026-04-28 14:58 46.89190 27.68717 31284 ft 474 kts 78°
2026-04-28 14:58 46.91441 27.94427 30523 ft 459 kts 79°
2026-04-28 14:58 46.92954 28.11686 28583 ft 450 kts 76°
2026-04-28 14:58 46.94397 28.20581 26140 ft 456 kts 68°
2026-04-28 14:59 46.96153 28.27438 23091 ft 473 kts 59°
2026-04-28 14:59 47.16634 28.78028 4442 ft 458 kts 56°
2026-04-28 14:59 47.17969 28.82037 4076 ft 416 kts 70°
2026-04-28 14:59 47.18286 28.85953 4016 ft 369 kts 92°
2026-04-28 15:00 47.17612 28.89375 4019 ft 333 kts 117°
2026-04-28 15:00 47.16222 28.91874 3972 ft 299 kts 137°
2026-04-28 15:00 47.11483 28.96940 3300 ft 284 kts 142°
2026-04-28 15:00 46.99513 29.10717 2784 ft 268 kts 143°
2026-04-28 15:01 46.97749 29.11769 2495 ft 250 kts 175°
2026-04-28 15:01 46.96221 29.11275 2514 ft 205 kts 212°
2026-04-28 15:01 46.95258 29.10016 2548 ft 176 kts 230°
2026-04-28 15:01 46.91741 29.03980 2236 ft 153 kts 239°
2026-04-28 15:02 46.91587 29.02599 1981 ft 131 kts 292°
2026-04-28 15:02 46.92073 29.01529 1917 ft 125 kts 302°
2026-04-28 15:02 46.92432 29.00341 1416 ft 131 kts 298°
2026-04-28 15:02 46.92733 28.99101 1023 ft 129 kts 285°
2026-04-28 15:03 46.92859 28.97796 712 ft 131 kts 275°
2026-04-28 15:03 46.92833 28.96437 422 ft 134 kts 271°
2026-04-28 15:03 46.92814 28.95120 293 ft 120 kts 270°
2026-04-28 15:03 46.92798 28.94137 298 ft 50 kts 274°
2026-04-28 15:04 46.92799 28.93956 304 ft 19 kts 270°
2026-04-28 15:04 46.92789 28.93633 312 ft 39 kts 267°
2026-04-28 15:04 46.92925 28.93408 319 ft 34 kts 358°
2026-04-28 15:04 46.93157 28.93438 318 ft 30 kts
2026-04-28 15:05 46.93324 28.93507 314 ft 22 kts 78°
2026-04-28 15:05 46.93327 28.93714 309 ft 12 kts 38°
2026-04-28 15:05 46.93357 28.93726 307 ft 0 kts